Gaylord, MI

1:28 AM EST on December 13, 2017 (GMT -0500)
Otsego County

Weather History for KGLR - November, 2013

Change the Weather History Date:

Wednesday, November 27, 2013

  Actual Average Record
Temperature  
Mean Temperature 12 °F -  
Max Temperature 19 °F 37 °F 64 °F (1990)
Min Temperature 3 °F 25 °F -7 °F (1951)
Degree Days  
Heating Degree Days 52    
Moisture  
Dew Point 11 °F    
Average Humidity 80    
Maximum Humidity 96    
Minimum Humidity 54    
Precipitation  
Precipitation 0.02 in - - ()
Sea Level Pressure  
Sea Level Pressure 30.01 in    
Wind  
Wind Speed 5 mph (NNW)    
Max Wind Speed 10 mph    
Max Gust Speed 21 mph    
Visibility 5 miles    
Events Snow    
Averages and records for this station are not official NWS values.
T = Trace of Precipitation, MM = Missing Value Source: NWS Daily Summary

Daily Weather History Graph

Daily Weather History Graph

Search for Another Location

Airport or City:

Trip Planner

Search our weather history database for the weather conditions in past years. The results will help you decide how hot, cold, wet, or windy it might be!

Date:

Astronomy

Nov. 27, 2013 Rise Set
Actual Time 7:52 AM EST 5:00 PM EST
Civil Twilight 7:19 AM EST 5:33 PM EST
Nautical Twilight 6:43 AM EST 6:09 PM EST
Astronomical Twilight 6:07 AM EST 6:44 PM EST
Moon 1:39 AM EST (11/27) 1:50 PM EST (11/27)
Length of Visible Light 10h 13m
Length of Day
9h 08m
Waning Crescent, 32% of the Moon is Illuminated
Nov 27
Waning Crescent
Dec 2
New
Dec 9
First Quarter
Dec 17
Full
Dec 25
Last Quarter

Hourly Weather History & Observations

Time (EST) Temp. Windchill Dew Point Humidity Pressure Visibility Wind Dir Wind Speed Gust Speed Precip Events Conditions
12:18 AM 18.0 °F 11.1 °F 14.0 °F 84% 29.97 in 2.5 mi NW 4.6 mph - 0.00 in Snow Light Snow
12:26 AM 18.0 °F 9.8 °F 14.0 °F 84% 29.97 in 4.0 mi WNW 5.8 mph - 0.00 in Snow Light Snow
12:39 AM 18.0 °F 9.8 °F 15.1 °F 88% 29.97 in 1.8 mi WNW 5.8 mph - 0.00 in Snow Light Snow
12:53 AM 18.0 °F 9.8 °F 15.1 °F 88% 30.02 in 2.5 mi WNW 5.8 mph - 0.00 in Snow Light Snow
1:03 AM 18.0 °F 9.8 °F 15.1 °F 88% 29.96 in 3.0 mi NW 5.8 mph - 0.00 in Snow Light Snow
1:08 AM 18.0 °F 9.8 °F 15.1 °F 88% 29.95 in 2.5 mi Variable 5.8 mph - 0.00 in Snow Light Snow
1:16 AM 18.0 °F 12.7 °F 15.1 °F 88% 29.95 in 1.5 mi Variable 3.5 mph - 0.00 in Snow Light Snow
1:48 AM 17.6 °F 12.3 °F 15.8 °F 93% 29.94 in 3.0 mi Variable 3.5 mph - 0.00 in Snow Light Snow
1:53 AM 17.1 °F 11.7 °F 15.1 °F 92% 30.01 in 3.0 mi NW 3.5 mph - 0.00 in Snow Light Snow
2:03 AM 18.0 °F 12.7 °F 15.1 °F 88% 29.94 in 1.8 mi NW 3.5 mph - 0.00 in Snow Light Snow
2:31 AM 18.0 °F - 15.1 °F 88% 29.94 in 1.0 mi Calm Calm - 0.01 in Snow Light Snow
2:53 AM 17.1 °F 11.7 °F 15.1 °F 92% 30.00 in 2.0 mi NW 3.5 mph - 0.02 in Snow Light Snow
3:00 AM 17.1 °F 11.7 °F 12.9 °F 84% 29.93 in 3.0 mi NW 3.5 mph - 0.00 in Snow Light Snow
3:09 AM 17.1 °F 10.0 °F 14.0 °F 88% 29.93 in 8.0 mi Variable 4.6 mph - 0.00 in   Overcast
3:49 AM 17.6 °F 12.3 °F 14.0 °F 86% 29.92 in 2.5 mi Variable 3.5 mph - 0.00 in Snow Light Snow
3:50 AM 17.1 °F 11.7 °F 14.0 °F 88% 29.99 in 2.0 mi WNW 3.5 mph - 0.00 in Snow Light Snow
4:05 AM 17.1 °F 11.7 °F 14.0 °F 88% 29.92 in 4.0 mi WNW 3.5 mph - 0.00 in Snow Light Snow
4:15 AM 17.1 °F 11.7 °F 14.0 °F 88% 29.92 in 2.5 mi WNW 3.5 mph - 0.00 in Snow Light Snow
4:22 AM 17.1 °F 8.7 °F 14.0 °F 88% 29.92 in 7.0 mi Variable 5.8 mph - 0.00 in Snow Light Snow
4:53 AM 17.1 °F 8.7 °F 12.9 °F 84% 29.99 in 2.0 mi Variable 5.8 mph - 0.00 in Snow Light Snow
5:04 AM 17.1 °F 7.6 °F 12.0 °F 81% 29.92 in 5.0 mi NNW 6.9 mph - 0.00 in Snow Light Snow
5:53 AM 16.0 °F 7.4 °F 10.0 °F 77% 30.00 in 6.0 mi NNW 5.8 mph - 0.00 in Snow Light Snow
6:53 AM 16.0 °F 7.4 °F 10.9 °F 81% 30.02 in 7.0 mi NNW 5.8 mph - 0.00 in Snow Light Snow
7:53 AM 16.0 °F 4.4 °F 10.0 °F 77% 30.04 in 5.0 mi North 9.2 mph - 0.00 in Snow Light Snow
8:02 AM 16.0 °F 4.4 °F 10.0 °F 77% 29.96 in 1.8 mi North 9.2 mph 16.1 mph 0.00 in Snow Light Snow
8:13 AM 15.1 °F 2.5 °F 9.0 °F 77% 29.97 in 3.0 mi North 10.4 mph 20.7 mph 0.00 in Snow Light Snow
8:30 AM 14.0 °F 1.2 °F 9.0 °F 80% 29.98 in 2.0 mi North 10.4 mph 20.7 mph 0.00 in Snow Light Snow
8:37 AM 14.0 °F 2.0 °F 9.0 °F 80% 29.98 in 1.8 mi North 9.2 mph 19.6 mph 0.00 in Snow Light Snow
8:43 AM 14.0 °F 2.0 °F 8.1 °F 77% 29.98 in 3.0 mi NNE 9.2 mph 19.6 mph 0.00 in Snow Light Snow
8:53 AM 14.0 °F 5.1 °F 7.0 °F 74% 30.06 in 8.0 mi Variable 5.8 mph - 0.00 in   Overcast
9:07 AM 14.0 °F 5.1 °F 9.0 °F 80% 29.99 in 1.8 mi NNW 5.8 mph - 0.00 in Snow Light Snow
9:24 AM 14.0 °F 2.9 °F 8.1 °F 77% 30.00 in 2.5 mi NNW 8.1 mph - 0.00 in Snow Light Snow
9:33 AM 14.0 °F 5.1 °F 9.0 °F 80% 29.99 in 4.0 mi Variable 5.8 mph - 0.00 in Snow Light Snow
9:53 AM 15.1 °F 4.2 °F 9.0 °F 77% 30.07 in 9.0 mi NNW 8.1 mph - 0.00 in   Mostly Cloudy
10:49 AM 15.8 °F 6.1 °F 8.6 °F 73% 30.01 in 1.8 mi Variable 6.9 mph - 0.00 in Snow Light Snow
10:53 AM 16.0 °F 7.4 °F 10.0 °F 77% 30.08 in 1.5 mi Variable 5.8 mph - 0.00 in Snow Light Snow
11:00 AM 16.0 °F 6.3 °F 9.0 °F 74% 30.00 in 2.5 mi Variable 6.9 mph - 0.00 in Snow Light Snow
11:07 AM 16.0 °F 7.4 °F 9.0 °F 74% 30.00 in 5.0 mi Variable 5.8 mph - 0.00 in Snow Light Snow
11:53 AM 17.1 °F 7.6 °F 10.0 °F 74% 30.06 in 4.0 mi Variable 6.9 mph - 0.00 in Snow Light Snow
12:04 PM 17.1 °F 5.8 °F 8.1 °F 68% 29.99 in 8.0 mi NNW 9.2 mph - 0.00 in   Overcast
12:53 PM 17.1 °F 5.0 °F 5.0 °F 59% 30.05 in 10.0 mi North 10.4 mph 20.7 mph 0.00 in   Mostly Cloudy
1:53 PM 19.0 °F 10.0 °F 5.0 °F 54% 30.05 in 10.0 mi Variable 6.9 mph 18.4 mph 0.00 in   Overcast
2:53 PM 19.0 °F 9.0 °F 7.0 °F 59% 30.06 in 9.0 mi North 8.1 mph 17.3 mph 0.00 in   Mostly Cloudy
3:53 PM 19.0 °F 11.1 °F 9.0 °F 65% 30.07 in 10.0 mi Variable 5.8 mph - 0.00 in   Overcast
4:27 PM 18.0 °F 11.1 °F 10.0 °F 71% 30.01 in 9.0 mi Variable 4.6 mph - 0.00 in Snow Light Snow
4:43 PM 18.0 °F 11.1 °F 9.0 °F 68% 30.02 in 10.0 mi Variable 4.6 mph - 0.00 in   Overcast
4:53 PM 17.1 °F 8.7 °F 9.0 °F 71% 30.10 in 10.0 mi Variable 5.8 mph - 0.00 in   Mostly Cloudy
5:53 PM 17.1 °F 8.7 °F 8.1 °F 68% 30.12 in 10.0 mi Variable 5.8 mph - N/A   Overcast
6:53 PM 17.1 °F 10.0 °F 9.0 °F 71% 30.14 in 10.0 mi Variable 4.6 mph - N/A   Mostly Cloudy
7:53 PM 15.1 °F 9.4 °F 9.0 °F 77% 30.15 in 10.0 mi NNW 3.5 mph - N/A   Partly Cloudy
8:53 PM 12.9 °F - 8.1 °F 81% 30.16 in 10.0 mi Calm Calm - N/A   Partly Cloudy
9:53 PM 7.0 °F - 6.1 °F 96% 30.17 in 10.0 mi Calm Calm - N/A   Clear
10:53 PM 6.1 °F - 5.0 °F 95% 30.19 in 10.0 mi Calm Calm - N/A   Clear
11:53 PM 3.0 °F - -0.0 °F 87% 30.20 in 10.0 mi Calm Calm - N/A   Clear